Flag for Micronesia Weather past 2 weeks in Colonia, Yap, Micronesia

Now
86 °F

Broken clouds.


Feels Like: 97 °F
Forecast: 80 / 85 °F
Wind: 12 mph from East

Location: Yap Island

Current Time: Dec 19, 2014 at 10:14:46 AM

Latest Report: Dec 19, 2014 at 9:50 AM


Visibility: 12 mi

Pressure: 29.88 "Hg

Humidity: 77%

Dew point: 77 °F

Location of ColoniaLocation

Historic Weather in Colonia — Graph

°F

Colonia temperature yesterday

Maximum temperature yesterday: 87 °F (at 12:51 PM)
Minimum temperature yesterday: 77 °F (at 2:54 AM)
Average temperature yesterday: 81 °F

Past Weeks' High & Low Weather Summary

 TemperatureHumidityPressure
High88 °F (Dec 10, 12:52 PM)96% (Dec 6, 4:57 AM)29.94 "Hg (Dec 6, 4:57 AM)
Low76 °F (Dec 13, 3:53 AM)67% (Dec 9, 12:52 PM)29.71 "Hg (Dec 5, 2:55 PM)
Average82 °F86%29.82 "Hg
* Reported Dec 4 8:52 AM — Dec 19 8:53 AM, Colonia, Weather by CustomWeather, © 2014

Note: Actual official high and low records may vary slightly from our data, if they occured in-between our weather recording intervals... More about our weather records

Advertising

Colonia weather history for previous 24 hours

 ConditionsComfort  
Time TempWeatherWind HumidityBarometerVisibility
8:53 AM
Dec 19
84 °FBroken clouds.10 mph81%29.87 "Hg12 mi
7:50 AM82 °FPartly cloudy.6 mph84%29.84 "Hg12 mi
6:56 AM81 °FPartly cloudy.7 mph85%29.83 "Hg12 mi
5:56 AM81 °FMostly cloudy.7 mph84%29.82 "Hg12 mi
4:51 AM80 °FMostly cloudy.6 mph89%29.81 "Hg12 mi
3:54 AM80 °FMostly cloudy.6 mph88%29.81 "Hg12 mi
2:53 AM78 °FSprinkles. Overcast.6 mph88%29.83 "Hg10 mi
1:50 AM81 °FPartly cloudy.5 mph85%29.85 "Hg12 mi
12:51 AM81 °FPartly cloudy.9 mph85%29.87 "Hg12 mi
11:50 PM
Dec 18
81 °FPartly cloudy.12 mph87%29.88 "Hg12 mi
10:50 PM80 °FPartly cloudy.8 mph88%29.88 "Hg12 mi
9:50 PM80 °FPartly cloudy.8 mph89%29.89 "Hg12 mi
8:50 PM81 °FPartly cloudy.8 mph84%29.88 "Hg12 mi
7:52 PM81 °FPartly cloudy.8 mph85%29.86 "Hg12 mi
6:53 PM81 °FBroken clouds.8 mph86%29.84 "Hg12 mi
5:50 PM82 °FBroken clouds.8 mph85%29.83 "Hg12 mi
4:50 PM84 °FPartly sunny.9 mph78%29.81 "Hg12 mi
3:50 PM83 °FPartly sunny.10 mph75%29.80 "Hg12 mi
2:50 PM81 °FBroken clouds.13 mph85%29.83 "Hg12 mi
1:50 PM87 °FPartly sunny.12 mph73%29.83 "Hg12 mi
12:51 PM87 °FPartly sunny.12 mph74%29.85 "Hg12 mi
11:53 AM87 °FPartly sunny.12 mph72%29.87 "Hg12 mi
10:51 AM86 °FPartly sunny.12 mph77%29.88 "Hg12 mi
Weather by CustomWeather, © 2014

See weather overviewHow to use our weather pages